Wind_Speed
40 40 40 40 39 39 38 38 39 40 40 41 41 41 41 41 42 42 42 42 42 42 42 43 43 44 44 44 43 43 43 42 41 41 41 41 41 41
40 40 40 41 40 40 39 39 39 41 41 41 40 40 41 41 42 41 41 41 41 42 42 42 42 41 42 42 42 43 42 41 41 41 41 41 40 40
40 40 40 41 41 41 40 39 40 40 41 40 40 40 40 40 40 41 41 41 41 41 41 41 40 40 40 40 40 41 41 41 40 40 40 39 39 39
39 39 40 40 40 40 40 40 41 40 40 40 39 39 39 39 40 40 40 40 40 40 39 39 39 39 40 40 40 39 39 39 39 38 38 38 38 38
39 39 40 40 40 41 41 42 41 41 40 39 38 38 38 39 38 39 39 39 39 39 39 39 39 39 39 39 39 39 39 39 38 38 37 37 37 37
39 39 40 40 40 41 41 41 41 40 39 39 38 38 38 39 39 38 38 38 39 39 39 39 39 39 39 39 39 39 39 39 38 37 37 37 38 37
40 41 41 41 41 41 40 40 40 40 39 39 38 38 38 38 38 38 38 38 38 38 38 39 39 39 39 39 39 39 39 38 38 37 37 37 37 37
41 41 41 41 41 40 40 40 40 39 39 39 38 38 38 38 38 38 38 37 38 38 39 39 39 39 39 39 39 38 38 38 37 36 36 36 36 36
40 40 40 40 40 39 38 38 38 38 39 39 38 38 39 38 38 38 38 38 38 38 38 38 39 39 38 38 38 38 37 37 36 36 35 35 35 35
41 41 41 41 41 41 40 38 38 38 38 38 38 39 38 38 38 38 38 37 38 38 38 37 37 37 38 37 37 37 36 35 35 34 34 34 34 34
39 40 41 41 41 41 41 40 40 40 39 38 38 38 39 39 38 39 39 39 39 38 38 37 36 36 36 35 35 34 33 33 33 32 32 32 32 32
38 38 39 40 40 41 41 40 40 40 40 40 39 39 39 38 37 38 38 38 38 37 37 36 36 36 35 35 34 33 33 32 32 32 32 32 32 31
38 38 38 39 39 39 39 39 39 39 39 40 39 39 39 38 38 38 38 38 37 37 37 37 36 36 36 35 34 33 32 32 32 31 31 31 30 30
37 37 37 37 38 38 38 38 38 38 39 39 39 39 39 39 39 39 39 39 38 37 38 37 37 36 36 34 34 33 33 33 32 32 32 31 30 30
36 36 37 37 37 37 37 37 37 37 37 38 38 38 38 39 39 40 40 40 39 38 38 37 37 36 36 35 34 34 34 33 33 32 31 30 30 29
36 36 36 36 36 36 36 36 37 37 37 38 37 37 37 38 39 38 38 39 38 38 38 37 36 36 36 35 35 34 33 32 31 30 30 29 28 27
36 37 37 37 37 36 37 37 38 38 38 38 37 36 36 37 38 38 37 37 37 37 36 36 35 35 35 34 33 32 31 30 28 28 28 27 26 25
37 37 37 37 37 37 37 37 38 38 38 37 37 36 36 36 37 38 38 37 36 36 36 35 35 34 33 32 31 30 29 28 27 26 26 25 24 24
37 37 37 37 36 36 37 37 37 37 37 37 37 36 36 36 36 37 37 36 35 34 34 34 33 32 31 31 30 29 28 26 25 24 24 23 23 22
35 36 36 36 36 36 36 36 36 35 35 35 36 36 36 36 35 34 34 33 33 32 32 32 31 31 30 29 28 27 26 25 24 23 23 22 22 22
34 34 34 35 35 35 35 35 35 34 34 34 34 34 34 34 34 33 33 32 32 31 30 29 29 29 28 27 26 25 25 24 23 22 22 21 21 21
33 33 33 33 34 34 34 33 33 33 33 33 33 33 32 32 32 32 31 31 30 29 28 27 27 27 27 26 25 25 24 24 23 22 22 21 21 21
31 31 32 32 33 32 32 32 32 32 32 31 31 31 31 30 30 30 30 29 28 27 27 27 26 26 26 25 24 24 23 23 23 23 22 22 22 21
Wind_Direction
267 268 269 269 269 269 270 271 273 274 275 275 275 277 278 278 280 280 280 280 280 281 282 283 284 285 286 286 287 288 289 290 289 289 288 288 287 288
267 268 269 270 270 269 270 272 274 274 276 276 277 278 279 279 279 280 280 281 282 283 284 284 286 286 287 288 288 289 289 289 289 289 288 288 287 288
267 268 269 271 271 270 270 272 274 275 276 276 276 277 279 279 279 279 280 281 282 284 284 285 285 286 288 288 289 289 289 289 289 289 289 288 288 288
267 269 270 270 271 271 271 273 275 275 275 275 276 277 278 279 279 280 280 281 283 284 285 286 286 287 288 289 289 290 290 290 290 289 289 289 289 288
268 269 269 270 271 272 272 274 275 275 275 275 275 276 277 278 279 280 280 281 283 284 285 286 286 287 287 289 289 289 290 290 290 290 289 289 288 288
268 269 270 271 272 273 273 273 273 274 274 275 275 275 276 278 279 279 280 281 284 285 286 286 286 287 288 288 289 289 289 289 290 289 289 288 288 289
268 270 271 272 273 273 272 272 272 272 273 274 274 275 277 278 279 280 280 282 284 285 287 286 287 288 287 288 289 289 289 289 289 288 289 289 289 289
269 270 270 272 272 273 272 272 272 272 272 272 273 275 277 278 279 279 280 282 283 284 286 286 288 288 287 288 289 289 289 289 289 288 289 289 290 290
269 270 271 273 273 272 272 272 271 271 271 272 273 275 276 277 278 279 280 282 284 285 286 287 288 289 289 290 289 289 288 289 289 288 288 289 290 291
269 270 271 272 273 272 270 271 271 272 272 272 274 275 275 275 278 279 279 280 283 285 286 288 288 289 289 290 290 290 289 290 289 289 289 289 290 290
270 271 271 272 272 272 271 271 270 270 270 273 275 274 274 275 277 278 279 279 282 284 286 288 288 288 288 290 291 291 291 290 290 290 290 291 291 291
270 272 272 271 271 271 270 271 270 270 270 272 273 273 275 276 278 278 279 280 282 283 285 286 287 287 287 288 290 290 291 291 290 290 290 292 293 294
271 272 272 272 271 270 270 270 270 269 270 272 273 273 274 275 277 278 279 281 282 283 284 285 286 286 287 287 287 288 289 290 289 290 291 292 292 293
270 271 271 272 272 270 269 269 269 270 270 271 273 274 274 275 276 277 279 281 282 283 284 285 286 286 286 286 285 286 287 287 287 289 291 291 292 292
270 271 271 271 271 270 269 268 269 270 271 272 273 274 275 275 276 277 279 281 281 282 284 285 285 285 285 285 284 285 285 285 286 287 288 290 291 291
269 270 271 270 270 270 270 270 269 271 272 273 274 275 276 277 278 279 280 281 281 282 283 283 284 284 284 284 285 285 285 284 283 285 287 289 290 290
269 271 271 272 272 271 271 271 271 271 272 273 273 275 276 278 278 279 281 281 282 283 283 283 284 284 283 284 284 284 284 283 282 284 285 288 289 290
269 271 271 272 272 272 272 272 271 272 272 273 274 274 276 276 278 279 281 281 281 282 282 281 282 282 282 283 284 283 282 282 282 284 285 286 288 289
270 271 271 271 271 271 272 273 273 272 272 273 273 274 275 277 278 279 280 281 280 282 282 281 281 280 280 281 281 281 280 279 281 282 282 284 286 289
271 271 271 272 272 272 272 272 272 272 272 273 273 273 275 277 278 278 279 281 281 281 282 281 281 281 281 280 279 278 277 277 278 279 280 282 285 289
272 273 272 272 272 272 271 271 271 272 271 272 272 272 273 275 276 277 279 280 280 281 282 281 281 281 281 280 278 276 275 275 275 276 278 280 285 290
271 272 272 272 272 271 270 271 271 271 271 271 272 272 273 274 275 275 276 278 278 279 280 279 279 280 279 279 277 275 273 272 272 273 275 279 283 287
271 271 272 273 272 271 270 270 271 272 272 272 272 272 273 274 274 274 274 276 277 277 278 277 278 279 278 278 276 272 270 270 271 272 274 278 282 285
Height
5691 5692 5692 5692 5692 5692 5692 5692 5692 5692 5693 5692 5690 5689 5687 5686 5685 5684 5683 5682 5680 5679 5678 5676 5674 5672 5669 5667 5665 5663 5661 5658 5656 5654 5652 5650 5648 5646
5681 5682 5682 5682 5682 5682 5682 5682 5681 5681 5680 5680 5678 5677 5676 5674 5673 5672 5671 5670 5669 5668 5666 5664 5662 5660 5658 5655 5653 5651 5649 5647 5645 5643 5641 5639 5637 5635
5671 5671 5672 5672 5672 5672 5672 5671 5670 5669 5669 5668 5667 5666 5664 5663 5662 5661 5660 5659 5658 5657 5655 5653 5651 5649 5647 5645 5642 5640 5638 5636 5634 5632 5630 5628 5626 5625
5660 5661 5661 5661 5661 5661 5661 5661 5660 5658 5657 5657 5656 5655 5654 5652 5651 5650 5649 5648 5647 5646 5644 5642 5641 5638 5636 5634 5632 5629 5627 5625 5623 5621 5620 5618 5616 5613
5650 5651 5651 5650 5651 5651 5650 5650 5649 5647 5646 5646 5646 5645 5644 5643 5641 5640 5639 5638 5637 5636 5634 5632 5630 5628 5626 5623 5621 5619 5617 5615 5613 5611 5609 5607 5605 5603
5639 5640 5640 5640 5640 5640 5639 5638 5638 5637 5636 5636 5635 5635 5634 5633 5632 5631 5630 5629 5627 5626 5624 5622 5620 5618 5616 5613 5611 5609 5607 5604 5602 5601 5598 5596 5595 5593
5629 5629 5629 5629 5628 5628 5628 5627 5627 5626 5626 5625 5625 5625 5624 5623 5622 5621 5620 5619 5618 5616 5614 5612 5610 5608 5605 5603 5601 5599 5596 5594 5592 5590 5588 5586 5584 5582
5618 5618 5618 5618 5618 5617 5617 5616 5616 5616 5616 5615 5615 5615 5614 5613 5612 5611 5610 5610 5609 5607 5604 5602 5600 5597 5595 5593 5591 5588 5586 5584 5582 5580 5578 5576 5574 5572
5606 5607 5607 5606 5606 5606 5606 5605 5605 5605 5605 5605 5605 5604 5604 5603 5602 5601 5600 5599 5598 5596 5594 5593 5590 5587 5585 5583 5580 5578 5576 5574 5572 5570 5568 5566 5564 5562
5595 5595 5595 5595 5595 5595 5595 5594 5594 5594 5595 5595 5595 5594 5593 5592 5592 5591 5590 5589 5588 5586 5584 5583 5580 5578 5575 5573 5570 5568 5566 5564 5562 5560 5559 5557 5554 5552
5584 5584 5584 5584 5584 5583 5583 5584 5584 5584 5583 5583 5584 5583 5582 5582 5581 5580 5579 5578 5578 5576 5574 5572 5570 5568 5566 5564 5561 5559 5556 5555 5553 5551 5549 5547 5545 5543
5573 5573 5572 5572 5571 5571 5571 5572 5572 5573 5572 5573 5573 5573 5572 5571 5570 5570 5569 5568 5567 5566 5564 5562 5560 5558 5557 5555 5553 5550 5548 5546 5544 5542 5540 5538 5536 5534
5561 5561 5561 5561 5560 5560 5560 5560 5561 5561 5561 5561 5561 5561 5561 5561 5560 5559 5559 5557 5556 5555 5554 5552 5550 5548 5546 5546 5544 5541 5539 5537 5535 5533 5531 5530 5528 5526
5550 5551 5550 5550 5549 5549 5549 5549 5550 5550 5550 5551 5551 5551 5551 5550 5550 5549 5548 5547 5546 5545 5543 5541 5540 5538 5537 5536 5535 5533 5531 5529 5527 5525 5523 5521 5519 5518
5539 5540 5539 5539 5538 5538 5538 5539 5539 5539 5539 5540 5540 5540 5540 5540 5539 5538 5537 5536 5535 5534 5533 5531 5530 5528 5527 5526 5525 5524 5522 5520 5518 5517 5515 5513 5512 5510
5528 5528 5528 5528 5528 5528 5528 5528 5528 5528 5528 5529 5529 5529 5529 5529 5528 5528 5527 5526 5525 5524 5523 5521 5519 5518 5517 5516 5516 5514 5513 5511 5510 5509 5507 5506 5504 5502
5517 5517 5518 5518 5517 5517 5517 5517 5517 5517 5518 5518 5518 5518 5518 5518 5517 5517 5516 5515 5515 5514 5513 5511 5510 5508 5508 5507 5506 5505 5504 5503 5502 5500 5499 5498 5497 5495
5506 5506 5506 5506 5506 5506 5506 5506 5506 5506 5507 5507 5507 5508 5508 5507 5507 5506 5506 5505 5504 5504 5503 5502 5501 5500 5499 5498 5498 5497 5496 5494 5494 5493 5492 5491 5490 5488
5495 5495 5495 5495 5495 5495 5495 5495 5495 5495 5496 5496 5496 5497 5497 5497 5496 5496 5495 5494 5494 5493 5493 5492 5491 5490 5490 5490 5490 5488 5488 5487 5486 5486 5485 5484 5483 5482
5484 5484 5485 5484 5484 5484 5484 5484 5484 5484 5485 5485 5486 5486 5486 5486 5485 5485 5485 5484 5484 5483 5483 5482 5482 5481 5481 5481 5481 5480 5480 5480 5479 5479 5478 5477 5477 5476
5474 5474 5474 5474 5473 5473 5474 5474 5474 5474 5474 5475 5475 5475 5475 5475 5475 5475 5474 5474 5473 5473 5473 5474 5473 5473 5472 5472 5473 5473 5473 5472 5472 5472 5472 5471 5471 5469
5463 5463 5463 5463 5463 5463 5463 5463 5464 5464 5464 5464 5465 5465 5465 5465 5465 5465 5465 5464 5464 5464 5464 5465 5464 5464 5464 5465 5465 5465 5465 5465 5465 5465 5465 5465 5464 5463
5453 5453 5453 5453 5452 5452 5453 5453 5453 5454 5454 5454 5454 5455 5455 5455 5455 5455 5455 5455 5455 5456 5456 5456 5456 5456 5456 5457 5457 5458 5458 5458 5458 5458 5458 5457 5457 5456